STARLINK-3771 (52293 NORAD) Tracking and Keplerian Element Data
This shows tracking and keplerian element data for the satellite.
Feedback or suggestion? Click here.
Element | Value |
Catalog | 52293 |
Name | STARLINK-3771 |
Epoch Orbit | 130 |
Epoch Day | 167.08334491 |
Epoch Year | 2022 |
RAAN | 101.4097 |
Inclination | 53.2172 |
Eccentricity | 0.0001229 |
Argument of Perigee | 73.9844 |
Mean Anonmoly | 194.9274 |
Mean Motion | 15.54937518 |
Decay Rate | -0.00712942 |
L1 | 1 52293U 22041AJ 22167.08334491 -.00712942 00000+0 -11439-1 0 9995 |
L2 | 2 52293 53.2172 101.4097 0001229 73.9844 194.9274 15.54937518 1302 |
Live tracking and technical data element details for STARLINK-3771 (NORAD 52293). STARLINK-3771 can be tracked NOW for your location showing map with azimuth and elevation plus other details from your city location.
Track the satellite on the map from your city or location and see movement details for azimuth, elevation, latitude, longitude, range, height, and movement on the map or in text.
IsCatalogInMostPopularTable: catalog: 52293, numindb: 1
Update: records affected: 1
GetName: 52293 STARLINK-3771
Hit Count: updated at: Mon, 27 Jun 2022 06:03:59 GMT